SHT1480 EGPF-EGCC

Flight info

Callsign SHT1480
Flight time N/A
Altitude 25000
Route NORBO T256 DCS L612 LAKEY
Aircraft A20N/M-SDE2E3FGHIRWXY/LB1

Departure

Time N/A
Airport Glasgow Airport (EGPF)

Arrival

Time 2026-05-04 16:27
Airport Manchester Airport (EGCC)
Time Latitude Longitude Altitude Speed Heading
2026-05-04 15:41 55.29688 -4.33734 29891 ft 399 kts 142°
2026-05-04 15:42 55.27434 -4.30530 29452 ft 423 kts 142°
2026-05-04 15:42 55.25118 -4.27240 29035 ft 445 kts 142°
2026-05-04 15:42 55.22651 -4.23753 28618 ft 460 kts 142°
2026-05-04 15:42 55.20741 -4.21064 28301 ft 459 kts 142°
2026-05-04 15:43 55.18276 -4.17568 27878 ft 453 kts 139°
2026-05-04 15:43 55.16036 -4.13802 27200 ft 443 kts 134°
2026-05-04 15:43 55.13925 -4.09902 26265 ft 439 kts 133°
2026-05-04 15:43 55.11906 -4.06154 25570 ft 431 kts 133°
2026-05-04 15:44 55.09900 -4.02435 25196 ft 426 kts 134°
2026-05-04 15:44 55.07863 -3.98675 25066 ft 431 kts 134°
2026-05-04 15:44 55.05799 -3.94879 25049 ft 429 kts 134°
2026-05-04 15:44 55.03747 -3.91119 25031 ft 428 kts 134°
2026-05-04 15:45 55.01689 -3.87355 25034 ft 432 kts 134°
2026-05-04 15:45 54.99607 -3.83556 25032 ft 433 kts 134°
2026-05-04 15:45 54.97543 -3.79794 25026 ft 427 kts 134°
2026-05-04 15:45 54.95518 -3.76109 25032 ft 429 kts 134°
2026-05-04 15:46 54.93442 -3.72339 25030 ft 432 kts 133°
2026-05-04 15:46 54.91365 -3.68573 25031 ft 430 kts 133°
2026-05-04 15:46 54.89302 -3.64836 25032 ft 428 kts 133°
2026-05-04 15:46 54.87242 -3.61108 25033 ft 431 kts 133°
2026-05-04 15:47 54.85363 -3.57714 25034 ft 446 kts 133°
2026-05-04 15:47 54.83178 -3.53772 25033 ft 461 kts 133°
2026-05-04 15:47 54.80948 -3.49758 25032 ft 474 kts 133°
2026-05-04 15:47 54.78641 -3.45614 25034 ft 479 kts 133°
2026-05-04 15:48 54.76339 -3.41485 25034 ft 476 kts 134°
2026-05-04 15:48 54.73942 -3.37483 25034 ft 482 kts 139°
2026-05-04 15:48 54.68377 -3.31183 25037 ft 481 kts 154°
2026-05-04 15:49 54.65635 -3.29098 25037 ft 476 kts 156°
2026-05-04 15:49 54.62610 -3.26853 25037 ft 480 kts 156°
2026-05-04 15:49 54.59571 -3.24588 24996 ft 472 kts 156°
2026-05-04 15:49 54.56587 -3.22362 24842 ft 460 kts 156°
2026-05-04 15:50 54.53721 -3.20222 24675 ft 441 kts 156°
2026-05-04 15:50 54.50954 -3.18159 24451 ft 427 kts 156°
2026-05-04 15:50 54.48277 -3.16165 23936 ft 423 kts 156°
2026-05-04 15:50 54.45592 -3.14166 23380 ft 418 kts 156°
2026-05-04 15:51 54.43194 -3.12385 22966 ft 411 kts 155°
2026-05-04 15:51 54.40586 -3.10450 22366 ft 407 kts 156°
2026-05-04 15:51 54.37973 -3.08515 21629 ft 407 kts 156°
2026-05-04 15:51 54.35438 -3.06638 21079 ft 402 kts 156°
2026-05-04 15:52 54.32931 -3.04786 20632 ft 395 kts 156°
2026-05-04 15:52 54.30969 -3.03339 20265 ft 391 kts 156°
2026-05-04 15:52 54.28473 -3.01498 20096 ft 394 kts 157°
2026-05-04 15:52 54.25946 -2.99636 20048 ft 396 kts 157°
2026-05-04 15:53 54.23464 -2.97597 20046 ft 398 kts 150°
2026-05-04 15:53 54.21138 -2.95067 20043 ft 395 kts 146°
2026-05-04 15:53 54.18987 -2.92629 20048 ft 388 kts 146°
2026-05-04 15:53 54.16727 -2.90077 20053 ft 390 kts 146°
2026-05-04 15:54 54.14462 -2.87528 20031 ft 389 kts 146°
2026-05-04 15:54 54.12224 -2.85017 19765 ft 387 kts 146°
2026-05-04 15:54 54.09989 -2.82515 19124 ft 383 kts 147°
2026-05-04 15:54 54.07773 -2.80037 18327 ft 379 kts 147°
2026-05-04 15:55 54.05575 -2.77584 17439 ft 375 kts 147°
2026-05-04 15:55 54.03410 -2.75170 16601 ft 371 kts 147°
2026-05-04 15:55 54.01264 -2.72781 15784 ft 366 kts 147°
2026-05-04 15:55 53.99183 -2.70466 15287 ft 360 kts 147°
2026-05-04 15:56 53.97073 -2.68124 15080 ft 363 kts 148°
2026-05-04 15:56 53.94963 -2.65786 14842 ft 361 kts 147°
2026-05-04 15:56 53.92865 -2.63463 14498 ft 359 kts 148°
2026-05-04 15:56 53.90781 -2.61158 14003 ft 357 kts 148°
2026-05-04 15:57 53.88703 -2.58863 13429 ft 355 kts 148°
2026-05-04 15:57 53.86755 -2.56716 12895 ft 353 kts 148°
2026-05-04 15:57 53.84650 -2.54397 12327 ft 350 kts 148°
2026-05-04 15:57 53.82618 -2.52161 11782 ft 347 kts 148°
2026-05-04 15:58 53.80598 -2.49941 11238 ft 345 kts 148°
2026-05-04 15:58 53.78587 -2.47735 10721 ft 343 kts 148°
2026-05-04 15:58 53.76591 -2.45541 10213 ft 341 kts 148°
2026-05-04 15:58 53.75046 -2.43847 9810 ft 339 kts 148°
2026-05-04 15:59 53.73074 -2.41684 9284 ft 337 kts 148°
2026-05-04 15:59 53.71120 -2.39547 8822 ft 332 kts 148°
2026-05-04 15:59 53.69217 -2.37468 8666 ft 318 kts 147°
2026-05-04 15:59 53.67428 -2.35415 8535 ft 305 kts 142°
2026-05-04 16:00 53.66051 -2.33125 8395 ft 293 kts 126°
2026-05-04 16:00 53.64810 -2.30740 8280 ft 279 kts 144°
2026-05-04 16:00 53.63135 -2.29273 8184 ft 266 kts 159°
2026-05-04 16:00 53.61449 -2.28181 8069 ft 254 kts 160°
2026-05-04 16:01 53.59822 -2.27134 7844 ft 248 kts 160°
2026-05-04 16:01 53.58217 -2.26095 7529 ft 247 kts 157°
2026-05-04 16:01 53.56933 -2.24535 7220 ft 246 kts 128°
2026-05-04 16:01 53.56249 -2.21998 7090 ft 247 kts 97°
2026-05-04 16:02 53.56273 -2.19168 7065 ft 248 kts 85°
2026-05-04 16:02 53.56418 -2.16225 7060 ft 247 kts 85°
2026-05-04 16:02 53.56697 -2.10516 6699 ft 243 kts 87°
2026-05-04 16:03 53.56443 -2.07739 6255 ft 240 kts 108°
2026-05-04 16:03 53.55899 -2.05076 6085 ft 237 kts 106°
2026-05-04 16:03 53.55477 -2.02547 6061 ft 211 kts 105°
2026-05-04 16:03 53.55167 -2.00586 6048 ft 197 kts 105°
2026-05-04 16:04 53.54793 -1.98322 6048 ft 202 kts 111°
2026-05-04 16:04 53.52696 -1.95921 5483 ft 189 kts 185°
2026-05-04 16:04 53.51443 -1.96457 4828 ft 190 kts 200°
2026-05-04 16:05 53.50274 -1.97376 4505 ft 187 kts 215°
2026-05-04 16:05 53.49260 -1.98798 4326 ft 189 kts 227°
2026-05-04 16:05 53.47689 -2.01909 3910 ft 181 kts 232°
2026-05-04 16:06 53.46942 -2.03463 3679 ft 162 kts 232°
2026-05-04 16:06 53.45158 -2.07182 3153 ft 154 kts 232°
2026-05-04 16:07 53.44270 -2.09027 2888 ft 145 kts 232°
2026-05-04 16:07 53.42467 -2.12780 2309 ft 137 kts 232°
2026-05-04 16:08 53.41870 -2.14020 2123 ft 136 kts 232°
2026-05-04 16:08 53.40084 -2.17730 1563 ft 136 kts 232°
2026-05-04 16:09 53.38903 -2.20184 1184 ft 135 kts 232°
2026-05-04 16:09 53.37758 -2.22558 811 ft 131 kts 231°
2026-05-04 16:10 53.36597 -2.24969 895 ft 141 kts 231°
2026-05-04 16:11 53.34665 -2.28966 2745 ft 168 kts 232°
2026-05-04 16:11 53.33866 -2.30603 3082 ft 197 kts 232°
2026-05-04 16:12 53.31127 -2.36275 3716 ft 228 kts 232°
2026-05-04 16:12 53.28818 -2.41448 3999 ft 223 kts 252°
2026-05-04 16:13 53.29379 -2.46363 4000 ft 229 kts 300°
2026-05-04 16:13 53.30951 -2.50965 3999 ft 228 kts 300°
2026-05-04 16:14 53.32739 -2.55299 3775 ft 227 kts 315°
2026-05-04 16:14 53.35716 -2.56703 3951 ft 232 kts
2026-05-04 16:15 53.40001 -2.53074 4002 ft 231 kts 30°
2026-05-04 16:16 53.42749 -2.50341 4003 ft 231 kts 30°
2026-05-04 16:16 53.46900 -2.46198 4005 ft 231 kts 30°
2026-05-04 16:17 53.49665 -2.43433 4002 ft 232 kts 30°
2026-05-04 16:18 53.51992 -2.36885 4007 ft 235 kts 85°
2026-05-04 16:18 53.52122 -2.34161 4005 ft 234 kts 85°
2026-05-04 16:19 53.52484 -2.26417 4002 ft 235 kts 85°
2026-05-04 16:19 53.52733 -2.21005 4003 ft 235 kts 85°
2026-05-04 16:20 53.53109 -2.12814 4003 ft 235 kts 85°
2026-05-04 16:20 53.53344 -2.07363 3996 ft 227 kts 91°
2026-05-04 16:21 53.50607 -2.02718 4002 ft 198 kts 160°
2026-05-04 16:22 53.48120 -2.01134 3623 ft 188 kts 160°
2026-05-04 16:22 53.44492 -2.00703 3000 ft 184 kts 225°
2026-05-04 16:23 53.43890 -2.06785 2543 ft 180 kts 270°
2026-05-04 16:24 53.41772 -2.14225 2098 ft 170 kts 232°
2026-05-04 16:25 53.40339 -2.17201 1637 ft 161 kts 232°
2026-05-04 16:26 53.37670 -2.22709 778 ft 143 kts 232°
2026-05-04 16:26 53.35929 -2.26345 234 ft 122 kts 232°
2026-05-04 16:27 53.35288 -2.27706 251 ft 47 kts 247°
2026-05-04 16:28 53.35230 -2.28173 253 ft 0 kts 272°
2026-05-04 16:28 53.35289 -2.28227 254 ft 15 kts 21°
2026-05-04 16:29 53.35566 -2.28025 252 ft 0 kts 53°
2026-05-04 16:30 53.35660 -2.27887 250 ft 14 kts
2026-05-04 16:31 53.35769 -2.27873 250 ft 4 kts
2026-05-04 16:31 53.35993 -2.27835 249 ft 17 kts
2026-05-04 16:32 53.36295 -2.28233 251 ft 21 kts 312°
2026-05-04 16:33 53.36489 -2.28556 252 ft 16 kts 315°
2026-05-04 16:33 53.36644 -2.28756 253 ft 14 kts 44°
2026-05-04 16:34 53.36785 -2.28649 251 ft 12 kts 305°
2026-05-04 16:34 53.36814 -2.28701 251 ft 0 kts 315°